loading
|

TITAN 4 CENTAUR R/B, 27169

Orbit data source: Space-Track

TITAN 4 CENTAUR R/B, 27169 is space debris in GEO originally from a launch on Mon, 14 Jan 2002 UTC launched from the Air Force Eastern Test Range (AFETR). Debris objects in space refer to the collection of defunct objects orbiting the Earth. Examples of debris include non-operational satellites, rocket bodies, and fragments generated from explosions, collisions, or faulty payload assembly.

Next visibility unknown
Loading greatness...
TITAN 4 CENTAUR R/B details
Identifier
27169, 2002-001B
Orbit
GEO
Last TLE update10 hours ago
Origin
Flag of USUSAF SMC (US)
ManufacturerLMA
MissionSpacecraft
Bus & MotorCENTAUR T, RL-10 X2
Mass~1,840 kg wet, ~1,840 kg dry
Launch date (UTC)
2002-01-14 (23 years ago)
Launch vehicleUnknown
Launch site
Air Force Eastern Test Range (AFETR)
Object type
Payload
Rocket body
Debris
Shape & HBRCyl, 9 m
Radar Cross Section37.970 m²

Expand to show TLE details & history

TLE from 10 hours ago
0 TITAN 4 CENTAUR R/B
1 27169U 02001B   24282.99199509  .00000100  00000-0  00000+0 0  9997
2 27169   9.2490  33.0194 0052751 121.2959 239.2209  1.00190049 20182
Epoch: 2024-10-08T23:48Z
Definitive object data (Epoch: 2024-10-08T23:48:28.375Z)
Latitude0.00001°
Longitude17.77065°
Altitude35,924.81 km
Speed3.065 km/s
True Right ascension02h 11m 56s
True Declination0° 00' 00"
Sunlit
Object was in daylight at TLE epoch
Predictive object data (real-time)
Latitude5.08158°
Longitude164.66155°
Altitude35,606.459 km
Speed3.089 km/s
Apparent Right ascension12h 20m 22s
Apparent Declination0° 27' 21"
Sunlit
Object is in daylight
Predictive observer data (real-time)
Local Sidereal Time03:43:57
Azimuth62.811° ENE
Elevation-29.265°
Doppler factor1
Orbital elements
Apogee36,033.103 km
Perigee35,588.004 km
Semi-major axis42,188.691 km
Eccentricity0.0052751
Inclination9.249°
RAAN33.0194°
Arg. of periapsis121.2959°
True anomaly238.70332°
Mean anomaly239.2209°
Eccentric anomaly238.96193°
Mean motion0.25047 °/min
BSTARUnknown
Period1437.32 mins
Authenticating...
27169 neighbors
Authenticating...
No data available
No data available
Other satellites on launch #1 in the year 2002 (2002-01-14 UTC)

TITAN 4 CENTAUR R/B Visibility forecast

Observer location: 39.9160978°, -105.1181434

TITAN 4 CENTAUR R/B is not visible in the next 10 days
Span
Click to sort rows by Start time (UTC) header in descending order
Start Az.
Max El. time (UTC)
Max El. Az.
Max El.
End time (UTC)
End Az.